| time (UTC) | temp F | wind direction | speed MPH | gust MPH | rain 1hr in | rain 24hr in | rain mn in | humidity % | barometer mb |
| 20260904193543 | 90 | 125 | 3.0 | 7.0 | 0.00 | 0.02 | 0.01 | 53 | 1015.1 |
| 20260904193040 | 91 | 169 | 1.0 | 7.0 | 0.00 | 0.02 | 0.01 | 53 | 1015.1 |
| 20260904192538 | 91 | 170 | 1.0 | 7.0 | 0.00 | 0.02 | 0.01 | 53 | 1015.2 |
| 20260904192038 | 91 | 124 | 2.0 | 7.0 | 0.00 | 0.02 | 0.01 | 53 | 1015.2 |
| 20260904191545 | 90 | 160 | 2.0 | 7.0 | 0.00 | 0.02 | 0.01 | 55 | 1015.3 |
| 20260904191038 | 89 | 142 | 4.0 | 7.0 | 0.00 | 0.02 | 0.01 | 54 | 1015.3 |
| 20260904190539 | 90 | 129 | 2.0 | 7.0 | 0.00 | 0.02 | 0.01 | 53 | 1015.4 |
| 20260904190045 | 90 | 148 | 2.0 | 7.0 | 0.00 | 0.02 | 0.01 | 54 | 1015.4 |
| 20260904185536 | 90 | 131 | 3.0 | 11.0 | 0.00 | 0.02 | 0.01 | 54 | 1015.4 |
| 20260904185037 | 90 | 132 | 4.0 | 11.0 | 0.00 | 0.02 | 0.01 | 54 | 1015.4 |
| 20260904184546 | 90 | 159 | 3.0 | 9.0 | 0.00 | 0.02 | 0.01 | 53 | 1015.5 |
| 20260904184034 | 90 | 188 | 4.0 | 9.0 | 0.00 | 0.02 | 0.01 | 52 | 1015.5 |
| 20260904183534 | 91 | 101 | 3.0 | 8.0 | 0.00 | 0.02 | 0.01 | 52 | 1015.5 |
| 20260904183033 | 91 | 203 | 3.0 | 7.0 | 0.00 | 0.02 | 0.01 | 50 | 1015.6 |
| 20260904182532 | 91 | 243 | 2.0 | 7.0 | 0.00 | 0.02 | 0.01 | 50 | 1015.8 |
| 20260904182032 | 92 | 163 | 1.0 | 6.0 | 0.00 | 0.02 | 0.01 | 50 | 1015.9 |
| 20260904181532 | 92 | 168 | 1.0 | 7.0 | 0.00 | 0.02 | 0.01 | 50 | 1015.9 |
| 20260904181031 | 91 | 250 | 3.0 | 11.0 | 0.00 | 0.02 | 0.01 | 49 | 1016.0 |
| 20260904180530 | 91 | 188 | 5.0 | 11.0 | 0.00 | 0.02 | 0.01 | 48 | 1016.1 |
| 20260904180029 | 91 | 193 | 3.0 | 9.0 | 0.00 | 0.02 | 0.01 | 50 | 1016.2 |
| 20260904175529 | 91 | 179 | 3.0 | 9.0 | 0.00 | 0.02 | 0.01 | 51 | 1016.3 |
| 20260904175029 | 91 | 153 | 4.0 | 10.0 | 0.00 | 0.02 | 0.01 | 50 | 1016.2 |
| 20260904174531 | 91 | 133 | 3.0 | 9.0 | 0.00 | 0.02 | 0.01 | 51 | 1016.3 |
| 20260904174027 | 91 | 217 | 4.0 | 9.0 | 0.00 | 0.02 | 0.01 | 51 | 1016.3 |
| 20260904173528 | 90 | 125 | 5.0 | 9.0 | 0.00 | 0.02 | 0.01 | 51 | 1016.4 |
| 20260904173037 | 90 | 143 | 5.0 | 10.0 | 0.00 | 0.02 | 0.01 | 52 | 1016.5 |
| 20260904172527 | 90 | 162 | 4.0 | 10.0 | 0.00 | 0.02 | 0.01 | 53 | 1016.5 |
| 20260904172027 | 90 | 199 | 0.0 | 2.0 | 0.00 | 0.02 | 0.01 | 51 | 1016.5 |
| 20260904171527 | 90 | 169 | 0.0 | 0.0 | 0.00 | 0.02 | 0.01 | 52 | 1016.7 |
| 20260904171026 | 90 | 139 | 0.0 | 0.0 | 0.00 | 0.02 | 0.01 | 52 | 1016.6 |
| 20260904170526 | 90 | 152 | 0.0 | 3.0 | 0.00 | 0.02 | 0.01 | 53 | 1016.6 |
| 20260904170038 | 90 | 158 | 0.0 | 5.0 | 0.00 | 0.02 | 0.01 | 53 | 1016.7 |
| 20260904165526 | 90 | 163 | 0.0 | 5.0 | 0.00 | 0.02 | 0.01 | 53 | 1016.7 |
| 20260904165026 | 90 | 131 | 0.0 | 6.0 | 0.00 | 0.02 | 0.01 | 54 | 1016.8 |
| 20260904164526 | 90 | 196 | 0.0 | 4.0 | 0.00 | 0.02 | 0.01 | 53 | 1016.9 |
| 20260904164025 | 90 | 197 | 0.0 | 0.0 | 0.00 | 0.02 | 0.01 | 54 | 1017.0 |
| 20260904163525 | 90 | 81 | 0.0 | 0.0 | 0.00 | 0.02 | 0.01 | 53 | 1017.0 |
| 20260904163025 | 90 | 162 | 0.0 | 0.0 | 0.00 | 0.02 | 0.01 | 53 | 1017.2 |
| 20260904162528 | 90 | 84 | 0.0 | 1.0 | 0.00 | 0.02 | 0.01 | 53 | 1017.3 |
| 20260904162025 | 90 | 165 | 0.0 | 4.0 | 0.00 | 0.02 | 0.01 | 52 | 1017.3 |
| 20260904161528 | 90 | 184 | 0.0 | 1.0 | 0.00 | 0.02 | 0.01 | 49 | 1017.4 |
| 20260904161024 | 89 | 139 | 0.0 | 2.0 | 0.00 | 0.02 | 0.01 | 53 | 1017.4 |
| 20260904160526 | 90 | 156 | 0.0 | 6.0 | 0.00 | 0.02 | 0.01 | 51 | 1017.4 |
| 20260904160024 | 90 | 203 | 0.0 | 6.0 | 0.00 | 0.02 | 0.01 | 51 | 1017.5 |
| 20260904155527 | 90 | 211 | 0.0 | 6.0 | 0.00 | 0.02 | 0.01 | 53 | 1017.4 |
| 20260904155023 | 90 | 115 | 0.0 | 4.0 | 0.00 | 0.02 | 0.01 | 52 | 1017.6 |
| 20260904154527 | 90 | 215 | 0.0 | 4.0 | 0.00 | 0.02 | 0.01 | 52 | 1017.7 |
| 20260904154027 | 91 | 111 | 0.0 | 3.0 | 0.00 | 0.02 | 0.01 | 52 | 1017.8 |
| 20260904153523 | 90 | 172 | 0.0 | 1.0 | 0.00 | 0.02 | 0.01 | 53 | 1017.7 |
| 20260904153021 | 90 | 119 | 0.0 | 6.0 | 0.00 | 0.02 | 0.01 | 52 | 1017.8 |
| 20260904152522 | 90 | 163 | 0.0 | 6.0 | 0.00 | 0.02 | 0.01 | 51 | 1017.8 |
| 20260904152019 | 90 | 215 | 0.0 | 2.0 | 0.00 | 0.02 | 0.01 | 54 | 1017.9 |
| 20260904151519 | 89 | 176 | 0.0 | 2.0 | 0.00 | 0.02 | 0.01 | 54 | 1017.9 |
| 20260904151017 | 89 | 128 | 0.0 | 2.0 | 0.00 | 0.02 | 0.01 | 60 | 1017.9 |
| 20260904150517 | 88 | 164 | 0.0 | 4.0 | 0.00 | 0.02 | 0.01 | 62 | 1017.9 |
| 20260904150028 | 89 | 94 | 0.0 | 4.0 | 0.00 | 0.02 | 0.01 | 60 | 1017.9 |
| 20260904145516 | 89 | 132 | 0.0 | 2.0 | 0.00 | 0.02 | 0.01 | 61 | 1017.9 |
| 20260904145014 | 89 | 164 | 0.0 | 0.0 | 0.00 | 0.02 | 0.01 | 61 | 1017.9 |
| 20260904144515 | 89 | 155 | 0.0 | 5.0 | 0.00 | 0.02 | 0.01 | 63 | 1017.9 |
| 20260904144016 | 88 | 120 | 0.0 | 3.0 | 0.00 | 0.02 | 0.01 | 62 | 1017.9 |
| 20260904143516 | 88 | 179 | 0.0 | 3.0 | 0.00 | 0.02 | 0.01 | 62 | 1017.9 |
| 20260904143012 | 88 | 172 | 0.0 | 2.0 | 0.00 | 0.02 | 0.01 | 62 | 1018.0 |
| 20260904142511 | 88 | 160 | 0.0 | 2.0 | 0.00 | 0.02 | 0.01 | 62 | 1018.0 |
| 20260904142010 | 88 | 206 | 0.0 | 2.0 | 0.00 | 0.02 | 0.01 | 62 | 1018.0 |
| 20260904141512 | 87 | 157 | 0.0 | 2.0 | 0.00 | 0.02 | 0.01 | 63 | 1018.0 |
| 20260904141009 | 87 | 126 | 0.0 | 1.0 | 0.00 | 0.02 | 0.01 | 64 | 1017.9 |
| 20260904140508 | 87 | 81 | 0.0 | 1.0 | 0.00 | 0.02 | 0.01 | 63 | 1017.8 |
| 20260904140007 | 86 | 70 | 0.0 | 0.0 | 0.00 | 0.02 | 0.01 | 65 | 1017.8 |
| 20260904135507 | 86 | 197 | 0.0 | 1.0 | 0.00 | 0.02 | 0.01 | 64 | 1017.8 |
| 20260904135007 | 86 | 174 | 0.0 | 2.0 | 0.00 | 0.02 | 0.01 | 64 | 1017.8 |
| 20260904134506 | 86 | 226 | 0.0 | 4.0 | 0.00 | 0.02 | 0.01 | 63 | 1017.8 |
| 20260904134005 | 86 | 190 | 0.0 | 3.0 | 0.00 | 0.02 | 0.01 | 63 | 1017.7 |
| 20260904133505 | 86 | 124 | 0.0 | 2.0 | 0.00 | 0.02 | 0.01 | 64 | 1017.8 |
| 20260904133008 | 86 | 54 | 0.0 | 3.0 | 0.00 | 0.02 | 0.01 | 64 | 1017.8 |
| 20260904132504 | 86 | 158 | 0.0 | 3.0 | 0.00 | 0.02 | 0.01 | 66 | 1017.8 |
| 20260904132005 | 85 | 165 | 0.0 | 0.0 | 0.00 | 0.02 | 0.01 | 66 | 1017.8 |
| 20260904131501 | 85 | 211 | 0.0 | 3.0 | 0.00 | 0.02 | 0.01 | 67 | 1017.8 |
| 20260904131100 | 84 | 148 | 0.0 | 3.0 | 0.00 | 0.02 | 0.01 | 68 | 1017.8 |
| 20260904130559 | 84 | 115 | 0.0 | 0.0 | 0.00 | 0.02 | 0.01 | 69 | 1017.8 |
| 20260904130058 | 83 | 242 | 0.0 | 0.0 | 0.00 | 0.02 | 0.01 | 71 | 1017.7 |
| 20260904125557 | 81 | 270 | 0.0 | 0.0 | 0.00 | 0.02 | 0.01 | 72 | 1017.7 |
| 20260904125055 | 80 | 286 | 0.0 | 0.0 | 0.00 | 0.02 | 0.01 | 73 | 1017.7 |
| 20260904124603 | 79 | 318 | 0.0 | 0.0 | 0.00 | 0.02 | 0.01 | 73 | 1017.7 |
| 20260904124052 | 79 | 319 | 0.0 | 0.0 | 0.00 | 0.02 | 0.01 | 74 | 1017.6 |
| 20260904123553 | 78 | 345 | 0.0 | 1.0 | 0.00 | 0.02 | 0.01 | 74 | 1017.6 |
| 20260904123051 | 78 | 326 | 0.0 | 4.0 | 0.00 | 0.02 | 0.01 | 75 | 1017.6 |
| 20260904122551 | 77 | 292 | 0.0 | 4.0 | 0.00 | 0.02 | 0.01 | 77 | 1017.6 |
| 20260904122049 | 77 | 309 | 0.0 | 0.0 | 0.00 | 0.02 | 0.01 | 77 | 1017.5 |
| 20260904121547 | 77 | 323 | 0.0 | 0.0 | 0.01 | 0.02 | 0.01 | 78 | 1017.4 |
| 20260904121050 | 76 | 348 | 0.0 | 0.0 | 0.01 | 0.02 | 0.01 | 79 | 1017.4 |
| 20260904120544 | 76 | 351 | 0.0 | 0.0 | 0.01 | 0.02 | 0.01 | 80 | 1017.5 |
| 20260904120049 | 76 | 347 | 0.0 | 0.0 | 0.01 | 0.02 | 0.01 | 81 | 1017.4 |
| 20260904115541 | 75 | 346 | 0.0 | 0.0 | 0.01 | 0.02 | 0.01 | 81 | 1017.3 |
| 20260904115042 | 75 | 332 | 0.0 | 1.0 | 0.01 | 0.02 | 0.01 | 81 | 1017.3 |
| 20260904114544 | 75 | 337 | 0.0 | 1.0 | 0.01 | 0.02 | 0.01 | 81 | 1017.3 |
| 20260904114039 | 75 | 350 | 0.0 | 0.0 | 0.01 | 0.02 | 0.01 | 81 | 1017.3 |
| 20260904113539 | 75 | 345 | 0.0 | 0.0 | 0.01 | 0.02 | 0.01 | 82 | 1017.3 |
| 20260904113039 | 75 | 356 | 0.0 | 0.0 | 0.01 | 0.02 | 0.01 | 82 | 1017.3 |
| 20260904112538 | 74 | 20 | 0.0 | 0.0 | 0.01 | 0.02 | 0.01 | 82 | 1017.1 |
| 20260904112038 | 74 | 333 | 0.0 | 0.0 | 0.01 | 0.02 | 0.01 | 82 | 1017.1 |
| 20260904111538 | 74 | 289 | 0.0 | 0.0 | 0.00 | 0.01 | 0.00 | 82 | 1017.0 |
| 20260904111038 | 74 | 336 | 0.0 | 0.0 | 0.00 | 0.01 | 0.00 | 82 | 1016.7 |
| 20260904110542 | 74 | 340 | 0.0 | 0.0 | 0.00 | 0.01 | 0.00 | 82 | 1016.6 |
| 20260904110040 | 74 | 342 | 0.0 | 0.0 | 0.00 | 0.01 | 0.00 | 82 | 1016.6 |
| 20260904105538 | 74 | 342 | 0.0 | 0.0 | 0.00 | 0.01 | 0.00 | 82 | 1016.5 |
| 20260904105037 | 74 | 328 | 0.0 | 0.0 | 0.00 | 0.01 | 0.00 | 82 | 1016.6 |
| 20260904104536 | 74 | 304 | 0.0 | 0.0 | 0.00 | 0.01 | 0.00 | 82 | 1016.6 |
| 20260904104035 | 74 | 352 | 0.0 | 0.0 | 0.00 | 0.01 | 0.00 | 82 | 1016.6 |
| 20260904103534 | 0 | 0.0 | 0.0 | 0.00 | 0.01 | 0.00 | 1016.6 | ||
| 20260904103035 | 0 | 0.0 | 0.0 | 0.00 | 0.01 | 0.00 | 1016.5 | ||
| 20260904102531 | 0 | 0.0 | 0.0 | 0.00 | 0.01 | 0.00 | 1016.5 | ||
| 20260904102029 | 0 | 0.0 | 0.0 | 0.00 | 0.01 | 0.00 | 1016.5 | ||
| 20260904101529 | 0 | 0.0 | 0.0 | 0.00 | 0.01 | 0.00 | 1016.5 | ||
| 20260904101029 | 0 | 0.0 | 0.0 | 0.00 | 0.01 | 0.00 | 1016.4 | ||
| 20260904100526 | 0 | 0.0 | 0.0 | 0.00 | 0.01 | 0.00 | 1016.4 | ||
| 20260904100024 | 0 | 0.0 | 0.0 | 0.00 | 0.01 | 0.00 | 1016.4 | ||
| 20260904095523 | 0 | 0.0 | 0.0 | 0.00 | 0.01 | 0.00 | 1016.4 | ||
| 20260904095021 | 0 | 0.0 | 0.0 | 0.00 | 0.01 | 0.00 | 1016.2 | ||
| 20260904094532 | 0 | 0.0 | 0.0 | 0.00 | 0.01 | 0.00 | 1016.2 | ||
| 20260904094018 | 0 | 0.0 | 0.0 | 0.00 | 0.01 | 0.00 | 1016.3 | ||
| 20260904093517 | 0 | 0.0 | 0.0 | 0.00 | 0.01 | 0.00 | 1016.3 | ||
| 20260904093016 | 0 | 0.0 | 0.0 | 0.00 | 0.01 | 0.00 | 1016.2 | ||
| 20260904092513 | 0 | 0.0 | 0.0 | 0.00 | 0.01 | 0.00 | 1016.0 | ||
| 20260904092012 | 0 | 0.0 | 0.0 | 0.00 | 0.01 | 0.00 | 1016.1 | ||
| 20260904091511 | 0 | 0.0 | 0.0 | 0.00 | 0.01 | 0.00 | 1016.1 | ||
| 20260904091011 | 0 | 0.0 | 0.0 | 0.00 | 0.01 | 0.00 | 1016.1 | ||
| 20260904090507 | 0 | 0.0 | 0.0 | 0.00 | 0.01 | 0.00 | 1016.0 | ||
| 20260904090007 | 0 | 0.0 | 0.0 | 0.00 | 0.01 | 0.00 | 1016.0 | ||
| 20260904085508 | 0 | 0.0 | 0.0 | 0.00 | 0.01 | 0.00 | 1015.9 | ||
| 20260904085004 | 0 | 0.0 | 0.0 | 0.00 | 0.01 | 0.00 | 1015.9 | ||
| 20260904084503 | 0 | 0.0 | 0.0 | 0.00 | 0.01 | 0.00 | 1015.9 | ||
| 20260904084100 | 0 | 0.0 | 0.0 | 0.00 | 0.01 | 0.00 | 1015.8 | ||
| 20260904083559 | 0 | 347 | 0.0 | 0.0 | 0.00 | 0.01 | 0.00 | 1015.7 | |
| 20260904083107 | 0 | 347 | 0.0 | 0.0 | 0.00 | 0.01 | 0.00 | 1015.8 | |
| 20260904082600 | 0 | 347 | 0.0 | 0.0 | 0.00 | 0.01 | 0.00 | 1015.7 | |
| 20260904082057 | 73 | 311 | 0.0 | 0.0 | 0.00 | 0.01 | 0.00 | 79 | 1015.7 |
| 20260904081556 | 73 | 308 | 0.0 | 0.0 | 0.00 | 0.01 | 0.00 | 79 | 1015.7 |
| 20260904081055 | 73 | 307 | 0.0 | 0.0 | 0.00 | 0.01 | 0.00 | 79 | 1015.7 |
| 20260904080555 | 73 | 304 | 0.0 | 0.0 | 0.00 | 0.01 | 0.00 | 79 | 1015.7 |
| 20260904080059 | 73 | 304 | 0.0 | 0.0 | 0.00 | 0.01 | 0.00 | 79 | 1015.7 |
| 20260904075555 | 73 | 324 | 0.0 | 0.0 | 0.00 | 0.01 | 0.00 | 79 | 1015.7 |
| 20260904075057 | 73 | 308 | 0.0 | 0.0 | 0.00 | 0.01 | 0.00 | 79 | 1015.8 |
| 20260904074556 | 73 | 323 | 0.0 | 0.0 | 0.00 | 0.01 | 0.00 | 79 | 1015.7 |
| 20260904074057 | 73 | 304 | 0.0 | 0.0 | 0.00 | 0.01 | 0.00 | 79 | 1015.8 |
| 20260904073553 | 73 | 304 | 0.0 | 0.0 | 0.00 | 0.01 | 0.00 | 79 | 1015.8 |
| 20260904073103 | 73 | 303 | 0.0 | 0.0 | 0.00 | 0.01 | 0.00 | 79 | 1015.8 |
| 20260904072553 | 73 | 326 | 0.0 | 0.0 | 0.00 | 0.01 | 0.00 | 79 | 1015.8 |
| 20260904072050 | 73 | 327 | 0.0 | 0.0 | 0.00 | 0.01 | 0.00 | 79 | 1015.8 |
| 20260904071551 | 73 | 337 | 0.0 | 0.0 | 0.00 | 0.01 | 0.00 | 79 | 1016.0 |
| 20260904071050 | 73 | 330 | 0.0 | 0.0 | 0.00 | 0.01 | 0.00 | 79 | 1016.0 |
| 20260904070550 | 73 | 333 | 0.0 | 0.0 | 0.00 | 0.01 | 0.00 | 79 | 1016.0 |
| 20260904070050 | 73 | 323 | 0.0 | 0.0 | 0.00 | 0.01 | 0.00 | 79 | 1016.1 |
| 20260904065552 | 73 | 324 | 0.0 | 0.0 | 0.00 | 0.02 | 0.00 | 79 | 1016.1 |
| 20260904065048 | 73 | 319 | 0.0 | 0.0 | 0.00 | 0.02 | 0.00 | 78 | 1016.1 |
| 20260904064556 | 73 | 326 | 0.0 | 0.0 | 0.00 | 0.02 | 0.00 | 77 | 1016.1 |
| 20260904064046 | 73 | 276 | 0.0 | 0.0 | 0.00 | 0.02 | 0.00 | 76 | 1016.1 |
| 20260904063548 | 73 | 274 | 0.0 | 0.0 | 0.00 | 0.02 | 0.00 | 76 | 1016.2 |
| 20260904063101 | 73 | 274 | 0.0 | 0.0 | 0.00 | 0.02 | 0.00 | 76 | 1016.2 |
| 20260904062544 | 73 | 269 | 0.0 | 0.0 | 0.00 | 0.02 | 0.00 | 76 | 1016.2 |
| 20260904062047 | 73 | 269 | 0.0 | 0.0 | 0.00 | 0.02 | 0.00 | 76 | 1016.1 |
| 20260904061545 | 73 | 269 | 0.0 | 0.0 | 0.00 | 0.02 | 0.00 | 76 | 1016.2 |
| 20260904061043 | 74 | 269 | 0.0 | 0.0 | 0.00 | 0.02 | 0.00 | 76 | 1016.2 |
| 20260904060543 | 74 | 269 | 0.0 | 0.0 | 0.00 | 0.02 | 0.00 | 76 | 1016.2 |
| 20260904055540 | 73 | 269 | 0.0 | 0.0 | 0.00 | 0.02 | 0.00 | 74 | 1016.3 |
| 20260904055044 | 74 | 269 | 0.0 | 0.0 | 0.00 | 0.02 | 0.00 | 74 | 1016.4 |
| 20260904054549 | 74 | 269 | 0.0 | 0.0 | 0.00 | 0.02 | 0.00 | 73 | 1016.5 |
| 20260904054041 | 74 | 269 | 0.0 | 0.0 | 0.00 | 0.02 | 0.00 | 72 | 1016.5 |
| 20260904053538 | 74 | 258 | 0.0 | 0.0 | 0.00 | 0.02 | 0.00 | 72 | 1016.4 |
| 20260904053038 | 74 | 233 | 0.0 | 0.0 | 0.00 | 0.02 | 0.00 | 72 | 1016.5 |
| 20260904052537 | 74 | 231 | 0.0 | 0.0 | 0.00 | 0.02 | 0.00 | 72 | 1016.6 |
| 20260904052036 | 74 | 208 | 0.0 | 0.0 | 0.00 | 0.02 | 0.00 | 72 | 1016.6 |
| 20260904051535 | 74 | 207 | 0.0 | 0.0 | 0.00 | 0.02 | 0.00 | 72 | 1016.6 |
| 20260904051033 | 74 | 207 | 0.0 | 0.0 | 0.00 | 0.02 | 0.00 | 71 | 1016.8 |
| 20260904050532 | 74 | 205 | 0.0 | 0.0 | 0.00 | 0.02 | 0.00 | 71 | 1016.9 |
| 20260904050041 | 74 | 204 | 0.0 | 0.0 | 0.00 | 0.02 | 0.00 | 69 | 1016.9 |
| 20260904045531 | 74 | 201 | 0.0 | 0.0 | 0.00 | 0.02 | 0.00 | 68 | 1017.0 |
| 20260904045033 | 75 | 174 | 0.0 | 0.0 | 0.00 | 0.02 | 0.00 | 68 | 1017.1 |
| 20260904044529 | 75 | 174 | 0.0 | 0.0 | 0.00 | 0.02 | 0.00 | 68 | 1017.0 |
| 20260904044028 | 75 | 174 | 0.0 | 0.0 | 0.00 | 0.02 | 0.00 | 67 | 1017.2 |
| 20260904043526 | 76 | 164 | 0.0 | 0.0 | 0.00 | 0.02 | 0.00 | 68 | 1017.1 |
| 20260904043026 | 76 | 161 | 0.0 | 0.0 | 0.00 | 0.02 | 0.00 | 68 | 1017.2 |
| 20260904042525 | 76 | 161 | 0.0 | 0.0 | 0.00 | 0.02 | 0.00 | 67 | 1017.2 |
| 20260904042024 | 76 | 161 | 0.0 | 0.0 | 0.00 | 0.02 | 0.00 | 67 | 1017.3 |
| 20260904041526 | 76 | 161 | 0.0 | 0.0 | 0.00 | 0.02 | 0.00 | 67 | 1017.3 |
| 20260904041023 | 76 | 161 | 0.0 | 0.0 | 0.00 | 0.02 | 0.00 | 67 | 1017.4 |
| 20260904040523 | 76 | 161 | 0.0 | 0.0 | 0.00 | 0.02 | 0.00 | 67 | 1017.4 |
| 20260904040036 | 76 | 161 | 0.0 | 0.0 | 0.00 | 0.02 | 0.00 | 67 | 1017.4 |
| 20260904035521 | 76 | 160 | 0.0 | 0.0 | 0.00 | 0.02 | 0.02 | 67 | 1017.4 |
| 20260904035025 | 76 | 160 | 0.0 | 0.0 | 0.00 | 0.02 | 0.02 | 67 | 1017.4 |
| 20260904034522 | 76 | 160 | 0.0 | 0.0 | 0.00 | 0.02 | 0.02 | 67 | 1017.4 |
| 20260904034021 | 76 | 160 | 0.0 | 0.0 | 0.00 | 0.02 | 0.02 | 67 | 1017.5 |
| 20260904033521 | 76 | 160 | 0.0 | 0.0 | 0.00 | 0.02 | 0.02 | 67 | 1017.6 |
| 20260904033021 | 76 | 160 | 0.0 | 0.0 | 0.00 | 0.02 | 0.02 | 67 | 1017.5 |
| 20260904032520 | 77 | 160 | 0.0 | 0.0 | 0.00 | 0.02 | 0.02 | 67 | 1017.5 |
| 20260904032020 | 77 | 160 | 0.0 | 0.0 | 0.00 | 0.02 | 0.02 | 66 | 1017.5 |
| 20260904031523 | 77 | 160 | 0.0 | 0.0 | 0.00 | 0.02 | 0.02 | 67 | 1017.6 |
| 20260904031019 | 77 | 160 | 0.0 | 0.0 | 0.00 | 0.02 | 0.02 | 67 | 1017.6 |
| 20260904030521 | 77 | 160 | 0.0 | 0.0 | 0.00 | 0.02 | 0.02 | 66 | 1017.5 |
| 20260904030020 | 77 | 160 | 0.0 | 0.0 | 0.00 | 0.02 | 0.02 | 67 | 1017.5 |
| 20260904025521 | 77 | 160 | 0.0 | 0.0 | 0.00 | 0.02 | 0.02 | 66 | 1017.5 |
| 20260904025019 | 77 | 160 | 0.0 | 0.0 | 0.00 | 0.02 | 0.02 | 66 | 1017.4 |
| 20260904024518 | 77 | 160 | 0.0 | 0.0 | 0.00 | 0.02 | 0.02 | 66 | 1017.4 |
| 20260904024019 | 77 | 160 | 0.0 | 0.0 | 0.00 | 0.02 | 0.02 | 66 | 1017.3 |
| 20260904023518 | 77 | 160 | 0.0 | 0.0 | 0.00 | 0.02 | 0.02 | 66 | 1017.4 |
| 20260904023020 | 77 | 159 | 0.0 | 0.0 | 0.00 | 0.02 | 0.02 | 66 | 1017.3 |
| 20260904022519 | 78 | 159 | 0.0 | 0.0 | 0.00 | 0.02 | 0.02 | 66 | 1017.3 |
| 20260904022018 | 78 | 157 | 0.0 | 0.0 | 0.00 | 0.02 | 0.02 | 66 | 1017.2 |
| 20260904021530 | 78 | 157 | 0.0 | 0.0 | 0.00 | 0.02 | 0.02 | 66 | 1017.2 |
| 20260904021018 | 78 | 158 | 0.0 | 0.0 | 0.00 | 0.02 | 0.02 | 66 | 1017.2 |
| 20260904020521 | 78 | 148 | 0.0 | 0.0 | 0.00 | 0.02 | 0.02 | 66 | 1017.2 |
| 20260904020018 | 78 | 142 | 0.0 | 0.0 | 0.00 | 0.02 | 0.02 | 66 | 1017.2 |
| 20260904015517 | 78 | 162 | 0.0 | 0.0 | 0.00 | 0.02 | 0.02 | 66 | 1017.1 |
| 20260904015021 | 78 | 155 | 0.0 | 0.0 | 0.00 | 0.02 | 0.02 | 66 | 1017.0 |
| 20260904014517 | 78 | 122 | 0.0 | 0.0 | 0.00 | 0.02 | 0.02 | 66 | 1016.9 |
| 20260904014017 | 78 | 205 | 0.0 | 0.0 | 0.00 | 0.02 | 0.02 | 65 | 1016.9 |
| 20260904013518 | 78 | 207 | 0.0 | 0.0 | 0.00 | 0.02 | 0.02 | 65 | 1017.0 |
| 20260904013016 | 78 | 207 | 0.0 | 0.0 | 0.00 | 0.02 | 0.02 | 65 | 1017.0 |
| 20260904012516 | 78 | 207 | 0.0 | 0.0 | 0.00 | 0.02 | 0.02 | 66 | 1017.0 |
| 20260904012016 | 78 | 207 | 0.0 | 0.0 | 0.00 | 0.02 | 0.02 | 66 | 1017.0 |
| 20260904011516 | 78 | 207 | 0.0 | 0.0 | 0.00 | 0.02 | 0.02 | 66 | 1017.0 |
| 20260904011016 | 78 | 207 | 0.0 | 0.0 | 0.00 | 0.02 | 0.02 | 65 | 1016.8 |
| 20260904010516 | 78 | 209 | 0.0 | 0.0 | 0.00 | 0.02 | 0.02 | 65 | 1016.8 |
| 20260904010016 | 78 | 198 | 0.0 | 0.0 | 0.00 | 0.02 | 0.02 | 65 | 1016.7 |
| 20260904005516 | 79 | 212 | 0.0 | 0.0 | 0.00 | 0.02 | 0.02 | 65 | 1016.7 |
| 20260904005020 | 79 | 217 | 0.0 | 0.0 | 0.00 | 0.02 | 0.02 | 65 | 1016.7 |
| 20260904004522 | 79 | 217 | 0.0 | 0.0 | 0.00 | 0.02 | 0.02 | 65 | 1016.6 |
| 20260904004014 | 79 | 217 | 0.0 | 0.0 | 0.00 | 0.02 | 0.02 | 65 | 1016.7 |
| 20260904003514 | 79 | 217 | 0.0 | 0.0 | 0.00 | 0.02 | 0.02 | 65 | 1016.7 |
| 20260904003022 | 79 | 217 | 0.0 | 0.0 | 0.00 | 0.02 | 0.02 | 65 | 1016.6 |
| 20260904002514 | 79 | 217 | 0.0 | 0.0 | 0.00 | 0.02 | 0.02 | 65 | 1016.6 |
| 20260904002014 | 79 | 217 | 0.0 | 0.0 | 0.00 | 0.02 | 0.02 | 65 | 1016.5 |
| 20260904001514 | 79 | 216 | 0.0 | 0.0 | 0.00 | 0.02 | 0.02 | 65 | 1016.6 |
| 20260904001015 | 79 | 200 | 0.0 | 0.0 | 0.00 | 0.02 | 0.02 | 65 | 1016.6 |
| 20260904000515 | 79 | 210 | 0.0 | 0.0 | 0.00 | 0.02 | 0.02 | 65 | 1016.6 |
| 20260904000013 | 80 | 213 | 0.0 | 0.0 | 0.00 | 0.02 | 0.02 | 65 | 1016.5 |
| 20260903235514 | 80 | 169 | 0.0 | 0.0 | 0.00 | 0.02 | 0.02 | 64 | 1016.6 |
| 20260903235012 | 80 | 169 | 0.0 | 0.0 | 0.00 | 0.02 | 0.02 | 64 | 1016.5 |
| 20260903234513 | 80 | 210 | 0.0 | 0.0 | 0.00 | 0.02 | 0.02 | 64 | 1016.6 |
| 20260903234012 | 80 | 210 | 0.0 | 0.0 | 0.00 | 0.02 | 0.02 | 64 | 1016.5 |
| 20260903233514 | 81 | 176 | 0.0 | 0.0 | 0.00 | 0.02 | 0.02 | 63 | 1016.4 |
| 20260903233021 | 81 | 162 | 0.0 | 0.0 | 0.00 | 0.02 | 0.02 | 63 | 1016.5 |
| 20260903232512 | 81 | 162 | 0.0 | 0.0 | 0.00 | 0.02 | 0.02 | 63 | 1016.5 |
| 20260903232012 | 81 | 162 | 0.0 | 0.0 | 0.00 | 0.02 | 0.02 | 63 | 1016.4 |
| 20260903231516 | 81 | 172 | 0.0 | 0.0 | 0.00 | 0.02 | 0.02 | 63 | 1016.3 |
| 20260903231011 | 81 | 124 | 0.0 | 0.0 | 0.00 | 0.02 | 0.02 | 63 | 1016.3 |
| 20260903230514 | 81 | 160 | 0.0 | 0.0 | 0.00 | 0.02 | 0.02 | 63 | 1016.3 |
| 20260903230012 | 81 | 145 | 0.0 | 0.0 | 0.00 | 0.02 | 0.02 | 63 | 1016.3 |
| 20260903225513 | 81 | 201 | 0.0 | 0.0 | 0.00 | 0.02 | 0.02 | 63 | 1016.3 |
| 20260903225012 | 81 | 139 | 0.0 | 0.0 | 0.00 | 0.02 | 0.02 | 63 | 1016.1 |
| 20260903224519 | 82 | 137 | 0.0 | 0.0 | 0.00 | 0.02 | 0.02 | 63 | 1016.2 |
| 20260903224014 | 82 | 148 | 0.0 | 0.0 | 0.01 | 0.02 | 0.02 | 63 | 1016.1 |
| 20260903223510 | 82 | 122 | 0.0 | 0.0 | 0.01 | 0.02 | 0.02 | 62 | 1016.0 |
| 20260903223013 | 82 | 131 | 0.0 | 0.0 | 0.01 | 0.02 | 0.02 | 63 | 1016.1 |
| 20260903222508 | 82 | 123 | 0.0 | 0.0 | 0.01 | 0.02 | 0.02 | 63 | 1016.0 |
| 20260903222008 | 82 | 121 | 0.0 | 0.0 | 0.01 | 0.02 | 0.02 | 63 | 1015.9 |
| 20260903221508 | 82 | 141 | 0.0 | 0.0 | 0.01 | 0.02 | 0.02 | 63 | 1015.9 |
| 20260903221009 | 82 | 120 | 0.0 | 0.0 | 0.01 | 0.02 | 0.02 | 63 | 1015.9 |
| 20260903220507 | 82 | 133 | 0.0 | 0.0 | 0.01 | 0.02 | 0.02 | 63 | 1015.7 |
| 20260903220007 | 82 | 120 | 0.0 | 0.0 | 0.01 | 0.02 | 0.02 | 64 | 1015.6 |
| 20260903215507 | 83 | 127 | 0.0 | 5.0 | 0.01 | 0.02 | 0.02 | 63 | 1015.6 |
| 20260903215006 | 84 | 150 | 0.0 | 7.0 | 0.01 | 0.02 | 0.02 | 62 | 1015.6 |
| 20260903214509 | 85 | 155 | 1.0 | 7.0 | 0.01 | 0.02 | 0.02 | 60 | 1015.6 |
| 20260903214005 | 85 | 162 | 0.0 | 2.0 | 0.00 | 0.01 | 0.01 | 59 | 1015.6 |
| 20260903213504 | 85 | 197 | 0.0 | 0.0 | 0.00 | 0.01 | 0.01 | 58 | 1015.6 |
| 20260903213004 | 86 | 202 | 0.0 | 0.0 | 0.00 | 0.01 | 0.01 | 59 | 1015.6 |
| 20260903212504 | 86 | 190 | 0.0 | 0.0 | 0.00 | 0.01 | 0.01 | 59 | 1015.6 |
| 20260903212003 | 86 | 187 | 0.0 | 0.0 | 0.00 | 0.01 | 0.01 | 59 | 1015.7 |
| 20260903211503 | 86 | 126 | 0.0 | 1.0 | 0.00 | 0.01 | 0.01 | 59 | 1015.7 |
| 20260903211003 | 86 | 158 | 0.0 | 1.0 | 0.00 | 0.01 | 0.01 | 58 | 1015.7 |
| 20260903210502 | 86 | 218 | 0.0 | 1.0 | 0.00 | 0.01 | 0.01 | 58 | 1015.6 |
| 20260903210002 | 87 | 203 | 0.0 | 0.0 | 0.00 | 0.01 | 0.01 | 57 | 1015.6 |
| 20260903205502 | 87 | 211 | 0.0 | 2.0 | 0.00 | 0.01 | 0.01 | 57 | 1015.5 |
| 20260903205001 | 87 | 180 | 0.0 | 0.0 | 0.00 | 0.01 | 0.01 | 56 | 1015.5 |
| 20260903204601 | 88 | 136 | 0.0 | 1.0 | 0.00 | 0.01 | 0.01 | 55 | 1015.4 |
| 20260903204100 | 89 | 256 | 0.0 | 5.0 | 0.00 | 0.01 | 0.01 | 55 | 1015.4 |
| 20260903203559 | 89 | 184 | 0.0 | 5.0 | 0.00 | 0.01 | 0.01 | 54 | 1015.3 |
| 20260903203059 | 89 | 165 | 0.0 | 5.0 | 0.00 | 0.01 | 0.01 | 53 | 1015.3 |
| 20260903202559 | 88 | 120 | 0.0 | 5.0 | 0.00 | 0.01 | 0.01 | 54 | 1015.4 |
| 20260903202100 | 88 | 212 | 0.0 | 2.0 | 0.00 | 0.01 | 0.01 | 53 | 1015.4 |
| 20260903201557 | 89 | 240 | 0.0 | 2.0 | 0.00 | 0.01 | 0.01 | 52 | 1015.3 |
| 20260903201059 | 89 | 250 | 0.0 | 4.0 | 0.00 | 0.01 | 0.01 | 53 | 1015.3 |
| 20260903200556 | 89 | 166 | 0.0 | 4.0 | 0.00 | 0.01 | 0.01 | 52 | 1015.3 |
| 20260903200057 | 89 | 168 | 0.0 | 3.0 | 0.00 | 0.01 | 0.01 | 52 | 1015.2 |
| 20260903195555 | 89 | 141 | 0.0 | 4.0 | 0.00 | 0.02 | 0.01 | 50 | 1015.3 |
| 20260903195055 | 90 | 165 | 0.0 | 5.0 | 0.00 | 0.02 | 0.01 | 50 | 1015.3 |
| 20260903194556 | 90 | 210 | 0.0 | 6.0 | 0.00 | 0.02 | 0.01 | 49 | 1015.3 |
| 20260903194056 | 90 | 210 | 0.0 | 1.0 | 0.00 | 0.02 | 0.01 | 48 | 1015.2 |